www.pogodaiklimat.ru

Погода и климат >> Архив погоды >> Испания >> Zaragoza


ПОГОДА в Zaragoza

  • Прогноз погоды в Zaragoza
  • Монитор погоды в Zaragoza
  • Климат города

АРХИВ ПОГОДЫ в Zaragoza

Время (UTC), дата Ветер
(напр.,м/с)
 
Видим.   Явления Облачность Т
(С)
Тd
(С)
f
(%)
Тe
(С)
Тes
(С)
Комфортность P
(гПа)
Po
(гПа)
Тmin
(С)
Tmax
(С)
R
(мм)
R24
(мм)
S
(см)
03 8.08 СЗ 5 20 км 6/6 1000 м
[Cu Sc]
+21.7 +15.3 67 +25 +25 комфорт 1013.2 983.6
06 8.08 СЗ 6 25 км 8/8 600 м
[Cu Sc]
+21.7 +14.3 63 +25 +25 комфорт 1013.9 984.3 +21.3
09 8.08 СЗ 2 25 км 5/5 600 м
[Sc]
+24.9 +15.0 54 +28 +33 жарко 1014.1 984.8
12 8.08 В 3 20 км 1/0
[Ci fib]
+30.5 +17.2 45 +34 +50 очень
душно
1011.5 982.9
15 8.08 ЮВ 6 20 км 5/4 1000 м
[Cb calv Ac cuf Cs]
+35.5 +17.2 34 +39 +41 очень
душно
1007.3 979.2
18 8.08 Ю 10 20 км {ливн. осадки} 8/3 1500 м
[Cb cap Ac cuf Cs]
+28.1 +15.7 47 +31 +31 душно 1008.3 979.5 +36.0 0.0
21 8.08 ЮВ 5 20 км {гроза, дождь} 4/1 1500 м
[Cu med, cong Ac cuf Cs]
+24.2 +20.1 78 +30 +30 очень
душно
1010.3 981.1 1
00 9.08 ЮВ 4 20 км 3/3 1500 м
[Sc diur, vesp Ac cuf]
+23.8 +20.5 82 +30 +30 очень
душно
1010.6 981.4
03 9.08 В 4 20 км 1/1 1000 м
[Sc Ac cuf]
+22.5 +20.2 87 +29 +29 очень
душно
1010.6 981.3
06 9.08 СЗ 9 25 км 8/8 600 м
[Sc]
+22.1 +15.7 67 +26 +26 душно 1013.3 983.8 +21.7
09 9.08 СЗ 11 20 км 1/1 1000 м
[Cu hum]
+23.8 +12.4 49 +26 +26 жарко 1015.7 986.2
12 9.08 СЗ 10 20 км 3/1 1000 м
[Cu hum Cs]
+27.7 +11.3 36 +29 +29 жарко 1016.1 987.0
15 9.08 СЗ 11 25 км 1/1 1000 м
[Sc]
+27.9 +11.0 35 +29 +29 жарко 1015.8 986.7
18 9.08 СЗ 6 20 км 3/1 1000 м
[Sc Ac cuf]
+25.3 +11.1 41 +27 +27 жарко 1018.2 988.8 +28.6
21 9.08 СЗ 10 20 км 4/1 1000 м
[Sc Ac cuf]
+21.2 +10.9 52 +23 +23 комфорт 1020.9 991.0
00 10.08 СЗ 10 20 км 1/1 1000 м
[Sc]
+19.2 +10.2 56 +19 +19 1022.5 992.4
03 10.08 СЗ 8 20 км 8/6 2000 м
[Sc Ac und]
+19.0 +10.0 56 +19 +19 1023.1 992.9
06 10.08 СЗ 5 35 км 6/6 1500 м
[Sc]
+18.0 +10.4 61 +18 +18 1024.4 994.1 +18.0
09 10.08 СЗ 2 25 км 4/4 1500 м
[Sc Ac und]
+21.3 +11.3 53 +23 +29 комфорт 1024.7 994.7
12 10.08 ЮВ 2 30 км ясно +26.4 +10.9 38 +27 +46 жарко 1022.8 993.4
15 10.08 В 3 30 км 3/1 1000 м
[Cu hum Ac cuf Cs]
+29.7 +12.2 34 +31 +37 жарко 1020.2 991.2
18 10.08 ЮВ 3 25 км 4/1 1000 м
[Cu med, cong Ac cuf Cs]
+29.3 +13.1 37 +31 +31 жарко 1019.2 990.2 +30.3
21 10.08 В 1 30 км 3/1 1000 м
[Cu Sc Ci fib]
+25.6 +15.0 52 +28 +28 жарко 1021.3 991.9
00 11.08 СЗ 4 30 км 4/1 1500 м
[Cu Sc Ac cuf Cs]
+22.6 +14.7 61 +26 +26 жарко 1023.1 993.3
03 11.08 З 5 30 км 3/0
[Ac und Ci fib]
+21.1 +14.3 65 +24 +24 комфорт 1022.8 992.9
06 11.08 З 2 30 км 3/0
[Ac und]
+20.6 +13.5 64 +24 +24 комфорт 1022.6 992.6 +20.0
09 11.08 В 2 15 км 4/1
[Sc Ac und Cs]
+26.0 +16.3 55 +29 +37 душно 1022.3 992.9
12 11.08 В 4 15 км 3/1 1500 м
[Cu hum Ci sp]
+30.7 +18.1 47 +35 +46 очень
душно
1019.4 990.6
15 11.08 ЮВ 4 15 км 4/3 1000 м
[Cb cap Ac cuf Ci ing]
+34.1 +17.3 37 +38 +42 очень
душно
1016.3 987.8
18 11.08 ЮВ 5 15 км 5/3 1000 м
[Cb cap Ac cuf Ci ing]
+32.8 +16.6 38 +36 +36 очень
душно
1015.1 986.6 +34.6
21 11.08 В 5 20 км 5/0
[Cs]
+28.3 +19.0 57 +34 +34 очень
душно
1016.5 987.5
00 12.08 В 5 20 км 3/0
[Cs]
+24.9 +20.4 76 +31 +31 очень
душно
1016.9 987.6
03 12.08 ЮВ 3 15 км 8/8 300 м
[St]
+23.8 +20.7 83 +30 +30 очень
душно
1016.3 986.9
06 12.08 В 3 12 км 1/1 300 м
[St]
+23.4 +20.5 84 +31 +31 очень
душно
1016.4 987.0 +23.1
09 12.08 В 5 15 км 1/1 1000 м
[Cu hum]
+27.6 +20.4 65 +34 +39 очень
душно
1015.6 986.6
12 12.08 В 5 15 км 4/1 1500 м
[Cb cap As op Ci ing]
+33.5 +19.2 43 +39 +46 очень
душно
1012.8 984.4
06 13.08 СЗ 2 20 км 3/0
[Ac trans Cs]
+19.1 +16.5 85 +21 +22 комфорт 1014.3 984.5 +19.1
09 13.08 СЗ 4 20 км 1/0
[Ac trans]
+24.0 +16.0 61 +27 +33 жарко 1014.2 984.8
12 13.08 СЗ 5 20 км 1/1 1500 м
[Cu med, cong]
+29.5 +15.6 43 +32 +41 душно 1012.5 983.7
15 13.08 СЗ 6 20 км 3/3 1500 м
[Cu med, cong]
+32.1 +15.6 37 +35 +38 очень
душно
1010.7 982.2
18 13.08 СЗ 7 20 км ясно +29.7 +14.7 40 +32 +32 душно 1011.4 982.6 +32.5
21 13.08 СЗ 7 25 км ясно +23.4 +13.8 55 +27 +27 душно 1015.9 986.4
00 14.08 СЗ 7 25 км 1/1 1500 м
[Cu Sc Ac cuf]
+21.2 +12.9 59 +23 +23 комфорт 1017.4 987.6
03 14.08 СЗ 8 25 км 1/1 1500 м
[Cu Sc]
+20.2 +13.9 67 +22 +22 комфорт 1017.9 988.0
06 14.08 СЗ 6 25 км 1/1 1500 м
[St]
+19.4 +13.6 69 +20 +21 1019.1 989.1 +19.1
09 14.08 СЗ 11 20 км 4/4 1500 м
[Sc Ci fib]
+23.2 +12.2 50 +26 +26 жарко 1019.2 989.6
12 14.08 СЗ 11 30 км 1/1 1000 м
[Cu hum]
+25.6 +11.4 41 +27 +27 жарко 1018.3 988.9
15 14.08 СЗ 10 30 км 1/1 1500 м
[Cu hum]
+28.2 +12.1 37 +29 +30 жарко 1017.2 988.1
18 14.08 СЗ 9 30 км 1/0
[Ci fib]
+25.6 +11.4 41 +27 +27 жарко 1016.9 987.6 +28.3
21 14.08 СЗ 10 30 км ясно +21.6 +11.6 53 +24 +24 комфорт 1019.1 989.3
00 15.08 СЗ 8 30 км ясно +19.9 +11.6 59 +21 +21 комфорт 1019.7 989.7

 

Местоположение метеостанции Zaragoza (Испания): широта 41.67 долгота -1.00 высота над уровнем моря 258 м.

В архиве по умолчанию представлена погода в Zaragoza за последнюю неделю. Архивные данные за месяц целиком и за предыдущие месяцы, начиная с января 2011 года, Вы можете получить, выбрав интересующий диапазон дат из раскрывающегося списка и нажав кнопку "Ввод!".


*Определитесь, кто Вы:
робот инопланетянин человек

Внимание! Время в таблицах - всемирное. Для получения местного времени необходимо прибавить поправку, которая в Zaragoza равна 1 ч.

Смотрите также архив погоды в соседних городах и на ближайших метеорологических станциях:

Погода в Bardenas Reales (Испания) (71 км)
Погода в Calamocha (Испания) (86 км)
Погода в Molina de Aragon (Испания) (117 км)
Погода в Soria (Испания) (123 км)
Погода в Pamplona (Испания) (133 км)
Погода в Lerida (Испания) (133 км)
Погода в Refugio de Casa Piedra (Испания) (138 км)
Погода в Logrono (Испания) (140 км)
Погода в Refugio de Belagua (Испания) (143 км)
Погода в Teruel (Испания) (147 км)

Пояснения к столбцам:

Ветер - указаны скорость ветра в м/с - средняя за 10 мин, порывы в срок и между сроками (в фигурных скобках) и направление, откуда дует ветер: С - северный, СВ - северо-восточный, В - восточный, ЮВ - юго-восточный, Ю - южный, ЮЗ - юго-западный, З - западный, СЗ - северо-западный.
Видимость - горизонтальная дальность видимости в метрах или километрах. При видимости от 1 до 10 км при отсутствии осадков обычно наблюдается дымка, при ухудшении видимости до 1 км и менее - туман. В сухую погоду видимость может ухудшаться дымом, пылью или мглою.
Явления - указаны атмосферные явления, наблюдавшиеся в срок или в последний час перед сроком; фигурными скобками обозначены явления, наблюдавшиеся между сроками (за 1-3 часа до срока); квадратными скобками обозначены град или гололедные отложения с указанием их диаметра в мм.
Облачность - указаны через наклонную черту общая и нижняя облачность в баллах и высота нижней границы облаков в метрах; квадратными скобками обозначены формы облаков: Ci - перистые, Cs - перисто-слоистые, Cc - перисто-кучевые, Ac - высококучевые, As - высокослоистые, Sc - слоисто-кучевые, Ns - слоисто-дождевые, Cu - кучевые, Cb - кучево-дождевые. Подробнее классификацию облаков см. в Атласе облаков (PDF).
T - Температура воздуха - температура, измеренная на высоте 2 м над землей.
Td - Температура точки росы - температура, при понижении до которой содержащийся в воздухе водяной пар достигнет насыщения.
f - Относительная влажность воздуха - влажноcть воздуха, измеренная на высоте 2 м над землей.
Te - Эффективная температура - температура, которую ощущает одетый по сезону человек в тени. Характеристика душности погоды. При расчете учитывается влияние влажности воздуха и скорости ветра на теплоощущения человека.
Tes - Эффективная температура на солнце - температура, которую ощущает человек, с поправкой на солнечный нагрев. Характеристика знойности погоды. Зависит от высоты солнца над горизонтом, облачности и скорости ветра. Ночью, в пасмурную погоду, а также при ветре 12 м/с и более поправка равна нулю.
P - Атмосферное давление - приведенное к уровню моря атмосферное давление.
Po - Атмосферное давление - измеренное на уровне метеостанции атмосферное давление.
Tmin - Минимальная температура - минимум температуры воздуха на высоте 2 м над землей.
Tmax - Максимальная температура - максимум температуры воздуха на высоте 2 м над землей.
R - Количество осадков - Количество выпавших осадков за период времени, мм. При наведении курсора мыши на число - период времени, за который выпало указанное количество осадков.
R24 - Количество осадков - Количество выпавших осадков за 24 часа, мм.
S - Снежный покров - Высота снежного покрова, см. При наведении курсора мыши на число - состояние снежного покрова и степень покрытия местности в баллах.